Tracking 35030 objects as of 9-Aug-2026
HD Live streaming from Space Station
objects crossing your sky now

FREGAT DEB


10-day predictions


NORAD ID: 46243
Int'l Code: 2011-037KD
Launch date: July 18, 2011
Source: Commonwealth of Independent States (former USSR) (CIS)
Launch site: TYURATAM MISSILE AND SPACE COMPLEX (TTMTR)

Note: This is SATELLITE DEBRIS
Your satellite tracking list
Your tracking list is empty




NASA's NSSDC Master Catalog

Two Line Element Set (TLE):
1 46243U 11037KD  26072.02791519 -.00002768  00000-0 -87718-1 0  9999
2 46243  51.8799 309.4720 1331310 163.4061 201.4987 10.00822309 68402
Source of the keplerian elements: AFSPC